Location: Newark
(42.9858°N, 0.6717°E)
Time: 12:16:30
(UTC+00:00)

Courier 1B Rocket - All Passes

Search period start: 21 November 2019 00:00
Search period end: 01 December 2019 00:00
Orbit: 920 x 1202 km, 28.2° (Epoch: 20 November)

Date Brightness Start Highest point End Pass type
(mag) Time Alt. Az. Time Alt. Az. Time Alt. Az.
21 Nov - 14:21:24 10° SSW 14:26:18 20° SSE 14:31:25 10° ESE daylight
21 Nov - 16:13:14 10° SW 16:18:54 25° S 16:24:48 10° SE daylight
21 Nov - 18:06:39 10° WSW 18:11:33 19° SSW 18:16:35 10° SSE visible
22 Nov - 13:21:28 10° SSW 13:25:33 17° SSE 13:29:47 10° SE daylight
22 Nov - 15:12:35 10° SW 15:18:01 24° S 15:23:44 10° SE daylight
22 Nov - 17:05:24 10° WSW 17:10:40 21° SSW 17:16:07 10° SE visible
22 Nov - 19:01:14 10° SW 19:03:11 11° SSW 19:05:10 10° S visible
23 Nov - 12:22:10 10° S 12:24:52 13° SSE 12:27:36 10° SE daylight
23 Nov - 14:12:06 10° SW 14:17:12 22° S 14:22:31 10° ESE daylight
23 Nov - 16:04:26 10° SW 16:09:47 23° S 16:15:24 10° SE daylight
23 Nov - 17:58:36 10° SW 18:02:22 15° SSW 18:06:12 10° S visible
24 Nov - 13:11:53 10° SSW 13:16:25 19° SSE 13:21:09 10° ESE daylight
24 Nov - 15:03:39 10° SW 15:08:56 24° S 15:14:29 10° SE daylight
24 Nov - 16:57:00 10° SW 17:01:31 18° SSW 17:06:12 10° SSE visible
25 Nov - 12:12:00 10° SSW 12:15:43 16° SSE 12:19:33 10° SE daylight
25 Nov - 14:03:02 10° SW 14:08:07 23° S 14:13:27 10° SE daylight
25 Nov - 15:55:49 10° SW 16:00:41 20° S 16:05:45 10° SSE daylight
25 Nov - 17:52:27 10° SSW 17:53:10 10° SSW 17:53:53 10° SSW visible
26 Nov - 11:12:48 10° S 11:15:04 12° SSE 11:17:21 10° SE daylight
26 Nov - 13:02:36 10° SW 13:07:20 21° S 13:12:17 10° SE daylight
26 Nov - 14:54:53 10° SW 14:59:51 22° S 15:05:05 10° SE daylight
26 Nov - 16:49:10 10° SW 16:52:22 13° SSW 16:55:39 10° S visible
27 Nov - 12:02:24 10° SSW 12:06:38 18° SSE 12:11:00 10° SE daylight
27 Nov - 13:54:08 10° SW 13:59:04 22° S 14:04:13 10° SE daylight
27 Nov - 15:47:32 10° SW 15:51:35 16° SSW 15:55:45 10° SSE daylight
28 Nov - 11:02:30 10° SSW 11:05:57 15° SSE 11:09:28 10° SE daylight
28 Nov - 12:53:33 10° SW 12:58:18 22° S 13:03:16 10° SE daylight
28 Nov - 14:46:22 10° SW 14:50:48 19° SSW 14:55:25 10° SSE daylight
29 Nov - 10:03:19 10° S 10:05:19 12° SSE 10:07:20 10° SE daylight
29 Nov - 11:53:07 10° SW 11:57:35 20° S 12:02:12 10° SE daylight
29 Nov - 13:45:26 10° SW 13:50:02 20° S 13:54:50 10° SE daylight
29 Nov - 15:39:58 10° SW 15:42:28 12° SSW 15:45:00 10° S daylight
30 Nov - 10:52:52 10° SSW 10:56:53 18° SSE 11:01:00 10° SE daylight
30 Nov - 12:44:40 10° SW 12:49:17 21° S 12:54:05 10° SE daylight
30 Nov - 14:38:11 10° SW 14:41:43 15° SSW 14:45:22 10° SSE daylight
